Weather History for Frederick, MD

Change the Weather History Date:

Saturday, January 25, 2014

  Actual Average (KHGR) Record (KHGR)
Temperature  
Mean Temperature 26 °F -  
Max Temperature 32 °F 34 °F 48 °F (2002)
Min Temperature 19 °F 21 °F 3 °F (2004)
Degree Days  
Heating Degree Days 40    
Moisture  
Dew Point 12 °F    
Average Humidity 56    
Maximum Humidity 75    
Minimum Humidity 46    
Precipitation  
Precipitation 0.00 in - - ()
Sea Level Pressure  
Sea Level Pressure 29.74 in    
Wind  
Wind Speed 13 mph (SW)    
Max Wind Speed 28 mph    
Max Gust Speed 34 mph    
Visibility 10 miles    
Events Snow    
Averages and records for this station are not official NWS values.
T = Trace of Precipitation, MM = Missing Value Source: NWS Daily Summary

Daily Weather History Graph

Daily Weather History Graph

Search for Another Location

Airport:

Trip Planner

Search our weather history database for the weather conditions in past years. The results will help you decide how hot, cold, wet, or windy it might be!

Date:

Astronomy

Jan. 25, 2014 Rise Set
Actual Time 7:22 AM EST 5:21 PM EST
Civil Twilight 6:53 AM EST 5:50 PM EST
Nautical Twilight 6:21 AM EST 6:22 PM EST
Astronomical Twilight 5:49 AM EST 6:54 PM EST
Moon 1:52 AM EST (1/25) 12:20 PM EST (1/25)
Length of Visible Light 10h 56m
Length of Day
9h 59m
Waning Crescent, 34% of the Moon is Illuminated
Jan 25
Waning Crescent
Jan 30
New
Feb 6
First Quarter
Feb 14
Full
Feb 22
Last Quarter

Hourly Weather History & Observations

Time (EST) Temp. Windchill Dew Point Humidity Pressure Visibility Wind Dir Wind Speed Gust Speed Precip Events Conditions
12:05 AM 21.2 °F 8.3 °F 3.2 °F 46% 30.06 in 10.0 mi South 13.8 mph - N/A   Clear
12:25 AM 21.2 °F 7.8 °F 3.2 °F 46% 30.05 in 10.0 mi SSW 15.0 mph 18.4 mph N/A   Clear
12:45 AM 19.4 °F 7.2 °F 3.2 °F 49% 30.03 in 10.0 mi South 11.5 mph 20.7 mph N/A   Clear
1:05 AM 19.4 °F 6.6 °F 3.2 °F 49% 30.02 in 10.0 mi South 12.7 mph 20.7 mph N/A   Clear
1:25 AM 21.2 °F 8.9 °F 3.2 °F 46% 30.00 in 10.0 mi South 12.7 mph - N/A   Clear
1:45 AM 21.2 °F 9.5 °F 3.2 °F 46% 29.99 in 10.0 mi South 11.5 mph 18.4 mph N/A   Clear
2:05 AM 21.2 °F 10.1 °F 5.0 °F 50% 29.97 in 10.0 mi South 10.4 mph - N/A   Clear
2:25 AM 21.2 °F 9.5 °F 5.0 °F 50% 29.96 in 10.0 mi South 11.5 mph 20.7 mph N/A   Clear
2:45 AM 21.2 °F 8.9 °F 5.0 °F 50% 29.94 in 10.0 mi South 12.7 mph - N/A   Clear
3:05 AM 21.2 °F 8.3 °F 5.0 °F 50% 29.93 in 10.0 mi SSW 13.8 mph - N/A   Clear
3:25 AM 21.2 °F 8.3 °F 5.0 °F 50% 29.92 in 10.0 mi South 13.8 mph 21.9 mph N/A   Clear
3:45 AM 21.2 °F 7.3 °F 5.0 °F 50% 29.90 in 10.0 mi SSW 16.1 mph 21.9 mph N/A   Clear
4:05 AM 21.2 °F 8.9 °F 5.0 °F 50% 29.88 in 10.0 mi South 12.7 mph - N/A   Clear
4:25 AM 21.2 °F 8.3 °F 6.8 °F 54% 29.86 in 10.0 mi South 13.8 mph 20.7 mph N/A   Clear
4:45 AM 21.2 °F 8.9 °F 6.8 °F 54% 29.86 in 10.0 mi South 12.7 mph 21.9 mph N/A   Clear
5:05 AM 21.2 °F 8.9 °F 5.0 °F 50% 29.84 in 10.0 mi SSW 12.7 mph - N/A   Clear
5:25 AM 21.2 °F 8.3 °F 6.8 °F 54% 29.84 in 10.0 mi SSW 13.8 mph - N/A   Clear
5:35 AM 21.2 °F 8.3 °F 6.8 °F 54% 29.83 in 10.0 mi SSW 13.8 mph - N/A   Clear
6:45 AM 21.2 °F 9.5 °F 6.8 °F 54% 29.79 in 10.0 mi SSW 11.5 mph - N/A   Clear
7:50 AM 21.2 °F 10.1 °F 6.8 °F 54% 29.75 in 10.0 mi SSW 10.4 mph 20.7 mph N/A   Clear
8:50 AM 21.2 °F 8.9 °F 6.8 °F 54% 29.73 in 10.0 mi SSW 12.7 mph - N/A   Overcast
9:55 AM 23.0 °F 10.6 °F 8.6 °F 54% 29.70 in 10.0 mi SSW 13.8 mph 23.0 mph N/A   Overcast
10:45 AM 24.8 °F 12.4 °F 8.6 °F 50% 29.68 in 10.0 mi SSW 15.0 mph 21.9 mph N/A   Scattered Clouds
11:47 AM 24.8 °F 16.9 °F 10.4 °F 54% 29.62 in 10.0 mi SSW 6.9 mph - N/A   Overcast
12:50 PM 26.6 °F 16.2 °F 10.4 °F 51% 29.55 in 10.0 mi South 11.5 mph - N/A   Overcast
1:50 PM 30.2 °F 20.8 °F 12.2 °F 47% 29.51 in 10.0 mi SSW 11.5 mph - N/A   Mostly Cloudy
2:50 PM 28.4 °F 19.7 °F 12.2 °F 51% 29.48 in 10.0 mi SSW 9.2 mph - N/A   Overcast
3:50 PM 30.2 °F 21.3 °F 14.0 °F 51% 29.49 in 10.0 mi SSW 10.4 mph - N/A   Overcast
4:50 PM 30.2 °F 22.6 °F 15.8 °F 55% 29.50 in 10.0 mi SSW 8.1 mph - N/A   Overcast
5:47 PM 30.2 °F 21.9 °F 21.2 °F 69% 29.50 in 10.0 mi SSW 9.2 mph - N/A   Overcast
6:50 PM 30.2 °F 22.6 °F 21.2 °F 69% 29.51 in 10.0 mi SSW 8.1 mph - N/A   Overcast
7:50 PM 30.2 °F 22.6 °F 21.2 °F 69% 29.53 in 10.0 mi SW 8.1 mph - N/A   Mostly Cloudy
8:10 PM 30.2 °F 20.8 °F 21.2 °F 69% 29.53 in 10.0 mi West 11.5 mph 17.3 mph N/A   Overcast
8:30 PM 32.0 °F 21.6 °F 19.4 °F 60% 29.54 in 10.0 mi WSW 15.0 mph - N/A   Scattered Clouds
8:50 PM 32.0 °F 22.1 °F 19.4 °F 60% 29.55 in 10.0 mi WSW 13.8 mph 20.7 mph N/A   Scattered Clouds
9:10 PM 32.0 °F 21.6 °F 21.2 °F 64% 29.55 in 7.0 mi West 15.0 mph 21.9 mph N/A Snow Light Snow
9:30 PM 32.0 °F 20.1 °F 24.8 °F 75% 29.57 in 10.0 mi WSW 19.6 mph 31.1 mph N/A   Overcast
9:50 PM 32.0 °F 22.1 °F 23.0 °F 69% 29.59 in 10.0 mi West 13.8 mph 19.6 mph N/A   Overcast
10:10 PM 32.0 °F 21.2 °F 23.0 °F 69% 29.61 in 10.0 mi WNW 16.1 mph 23.0 mph N/A   Overcast
10:30 PM 30.2 °F 18.5 °F 21.2 °F 69% 29.63 in 10.0 mi West 17.3 mph 21.9 mph N/A   Overcast
10:50 PM 30.2 °F 17.8 °F 19.4 °F 64% 29.64 in 10.0 mi West 19.6 mph 25.3 mph N/A   Scattered Clouds
11:10 PM 30.2 °F 15.7 °F 19.4 °F 64% 29.66 in 10.0 mi WNW 27.6 mph 34.5 mph N/A   Mostly Cloudy
11:30 PM 26.6 °F 13.8 °F 17.6 °F 69% 29.67 in 10.0 mi NW 17.3 mph 25.3 mph N/A   Overcast
11:50 PM 26.6 °F 12.7 °F 14.0 °F 59% 29.69 in 10.0 mi WNW 20.7 mph 24.2 mph N/A   Overcast